Regional Weather Roundup
Issued by NWS Sterling, VA

Home | Current Version | Previous Version | Graphics & Text | Print | Product List | Glossary On
Versions: 1 2 3 4 5 6 7 8 9 10 11 12 13 14 15 16 17 18 19 20 21 22 23 24 25 26 27
000
ASUS41 KLWX 251910
RWRLWX

REGIONAL WEATHER ROUNDUP
NATIONAL WEATHER SERVICE BALTIMORE MD/WASHINGTON DC
300 PM EDT MON JUL 25 2016

Note: "FAIR" indicates few or no clouds below 12,000 feet
with no significant weather and/or obstructions to visibility.
 TC=TEMPERATURE CELSIUS

 * =Non NWS site. Station does not report precipitation (e.g. rain,
    snow, etc.), thunder, or fog.

DCZ001-MDZ009-015-VAZ040>042-051-053>054-252000-
WASHINGTON METRO

CITY           SKY/WX    TMP DP  RH WIND       PRES   REMARKS
WASHINGTON NAT PTSUNNY   98  76  49 S13G20    29.88F HX 112
DULLES         PTSUNNY   99  68  36 S9        29.89F HX 104
ANDREWS AFB    SUNNY     97  70  41 SW10      29.89F HX 103
FT BELVOIR     FAIR      99  74  44 S8        29.89F HX 110
QUANTICO       PTSUNNY   98  73  44 S10       29.90F HX 108
COLLEGE PARK*  FAIR      97  72  44 S7        29.86F HX 105
LEESBURG*      FAIR     100  73  41 S12       29.90F HX 111
MANASSAS*      SUNNY     99  73  44 SW8       29.90F HX 109
GAITHERSBURG*  MOSUNNY   97  73  46 W7        29.93F HX 107

$$

MDZ006>007-011-014-252000-
BALTIMORE METRO

CITY           SKY/WX    TMP DP  RH WIND       PRES   REMARKS
BWI AIRPORT    MOSUNNY   98  71  41 S9        29.87F HX 106
MD SCIENCE CTR   N/A    100  71  39 MISG      29.86F HX 108
MARTIN STATE   MOSUNNY   93  84  75 SE14      29.88F HX 121
ANNAPOLIS      SUNNY     95  80  61 S12       29.87F HX 114
FORT MEADE*    MOSUNNY   95  73  49 SW5       29.90F HX 105

$$

MDZ012-015-019>023-252000-
MARYLAND EASTERN SHORE

CITY           SKY/WX    TMP DP  RH WIND       PRES   REMARKS
OCEAN CITY     SUNNY     98  75  47 SW7       29.91F HX 110
SALISBURY      SUNNY     94  75  54 SW14      29.91F HX 105
BAY BRIDGE AP* SUNNY     95  79  59 S8        29.88F HX 112
CAMBRIDGE*     SUNNY     95  73  49 SW7       29.89F HX 105
EASTON*        MOSUNNY   95  81  63 SW9       29.94F HX 115

$$

MDZ017>025-252000-
SOUTHERN MARYLAND

CITY           SKY/WX    TMP DP  RH WIND       PRES   REMARKS
PATUXENT RIVER MOSUNNY  101  64  29 SW13      29.90F HX 104
ST INIGOES     SUNNY     99  70  38 SW9       29.90F HX 106
LEONARDTOWN*   SUNNY     97  64  34 W12       29.92F HX  99

$$

MDZ003>005-252000-
NORTH CENTRAL MARYLAND

CITY           SKY/WX    TMP DP  RH WIND       PRES   REMARKS
FREDERICK*     MOSUNNY   99  73  44 SW9G18    29.91F HX 109
HAGERSTOWN APT CLOUDY    98  70  40 SW9       29.89F HX 105

$$

MDZ501>502-252000-
WESTERN MARYLAND

CITY           SKY/WX    TMP DP  RH WIND       PRES   REMARKS
OAKLAND*       PTSUNNY   73  68  83 W12G17    30.11R
CUMBERLAND*    SUNNY     99  64  32 NW10G17   29.94F HX 101

$$

VAZ025>031-252000-
SHENANDOAH VALLEY

CITY           SKY/WX    TMP DP  RH WIND       PRES   REMARKS
WINCHESTER*    PTSUNNY   95  70  43 S5        29.91F HX 101
FRONT ROYAL*   FAIR      97  70  41 S8        29.91F HX 103
LURAY*         FAIR      95  70  43 SW8       29.93F HX 101
NEW MARKET*    FAIR     N/A N/A N/A S7        29.93S
STAUNTON*      FAIR      92  73  52 S12       29.98F HX 100
WAYNESBORO*    FAIR      92  67  43 SW7       30.00F HX  96

$$

WVZ021-048>050-054>055-252000-
EASTERN WEST VIRGINIA PANHANDLE

CITY           SKY/WX    TMP DP  RH WIND       PRES   REMARKS
MARTINSBURG    PTSUNNY   95  69  42 SW8       29.88F HX 100
PETERSBURG*    FAIR      99  71  39 W9        29.93F HX 107

$$

VAZ036>039-050-252000-
CENTRAL FOOTHILLS

CITY           SKY/WX    TMP DP  RH WIND       PRES   REMARKS
CHARLOTTESVILL FAIR      97  72  44 S8        29.93F HX 105
CULPEPER*      FAIR      97  74  48 SW7       29.91F HX 109
ORANGE*          N/A     99  68  36 S9        29.94F HX 104
GORDONSVILLE*  FAIR      94  72  48 S9        29.92F HX 102
WARRENTON*     FAIR      99  64  32 S7        29.90F HX 101

$$

VAZ055>057-252000-
NORTH AND CENTRAL PIEDMONT

CITY           SKY/WX    TMP DP  RH WIND       PRES   REMARKS
FREDERICKSBRG*   N/A     99  70  39 SW12G18   29.90F HX 105
STAFFORD*      FAIR      98  67  36 SW9       29.95F HX 102

$$

NCZ024-NYZ072-PAZ021-071-VAZ022-071-252000-
OTHER REGIONAL OBSERVATIONS

CITY           SKY/WX    TMP DP  RH WIND       PRES   REMARKS
NEW YORK CITY  SUNNY     92  73  53 VRB6      29.88F HX 100
PHILADELPHIA   PTSUNNY   95  75  52 SW8       29.87F HX 107
PITTSBURGH     CLOUDY    93  68  43 NW24      29.94S HX  97
ROANOKE        FAIR      93  70  46 N8        30.02F HX  99
RICHMOND       PTSUNNY   95  70  44 SW15      29.93F HX 101
RALEIGH        PTSUNNY   93  74  53 SW7       29.99F HX 103

$$

ANZ530>537-252000-
MARINE OBSERVATIONS

STATION/POSITION TIME  TEMP    WIND        PRES
                       AIR SEA DIR/SP/G
                 (UTC) (F)     (DEG/KT/KT) (MB)
THOMAS PT LIGHT  1900   88 84  160/ 11/ 12 1013.2F
BALT KEY BRIDGE  1842   95     230/ 13/ 16 1011.3F
COVE POINT       1842   96     270/ 13/ 16 1013.1F
LEWISETTA        1848   96 89  230/ 12/ 15 1012.4F
SOLOMONS ISLAND  1842   95 84  240/ 12/ 16   N/A
PINEY POINT      1848          240/  7/ 11   N/A

$$





USA.gov is the U.S. government's official web portal to all federal, state and local government web resources and services.